Regional Weather Roundup
Issued by NWS

Home | Current Version | Previous Version | Text Only | Print | Product List | Glossary Off
Versions: 1 2 3 4 5 6 7 8 9 10 11 12 13 14 15 16 17 18 19 20 21 22 23 24 25 26 27

000
ASUS45 KPSR 261010
RWRAZ

ARIZONA HOURLY REGIONAL WEATHER ROUNDUP
NATIONAL WEATHER SERVICE PHOENIX AZ
300 AM MST SAT MAY 26 2018

NOTE: FAIR INDICATES FEW OR NO CLOUDS BELOW 12,000 FEET WITH NO
SIGNIFICANT WEATHER AND/OR OBSTRUCTIONS TO VISIBILITY.

AZZ001>003-036-261100-
NORTHWEST ARIZONA

CITY           SKY/WX    TMP DP  RH WIND       PRES   REMARKS
BULLHEAD CITY  CLEAR     73  36  25 S12       29.78S
KINGMAN        CLEAR     66  27  23 SE3       29.90S
$$

AZZ004>008-015-016-018-261100-
NORTH CENTRAL ARIZONA

CITY           SKY/WX    TMP DP  RH WIND       PRES   REMARKS
GRAND CANYON   PTCLDY    38  10  31 NE6       30.07F WCI  33
WILLIAMS       CLEAR     54  16  22 SW13G22   30.04F
PRESCOTT       PTCLDY    52  23  32 S6        30.01F
FLAGSTAFF      CLEAR     43  16  33 NE3       30.08F
PAYSON         PTCLDY    57  19  23 CALM      30.03F
PAGE           CLEAR     72  15  11 S3        29.91F
$$

AZZ009>014-017-261100-
NORTHEAST ARIZONA

CITY           SKY/WX    TMP DP  RH WIND       PRES   REMARKS
WINSLOW        CLEAR     54  20  26 SE5       30.01F
SAINT JOHNS    MOCLDY    53  19  26 S3        30.07F
WINDOW ROCK    CLEAR     45  16  31 CALM      30.14F
SHOW LOW       MOCLDY    59  23  25 S10       30.11F
$$

AZZ540-542>544-546-548-261100-
GREATER PHOENIX AREA

CITY           SKY/WX    TMP DP  RH WIND       PRES   REMARKS
PHOENIX        MOCLDY    77  29  17 E6        29.80S
BUCKEYE        MOCLDY    68  28  22 CALM      29.83S
LUKE AFB       PTCLDY    76  31  19 S5        29.80S
DEER VALLEY    PTCLDY    72  26  18 E5        29.82S
SCOTTSDALE     PTCLDY    73  37  27 CALM      29.84S
MESA-GATEWAY   CLOUDY    69  26  19 SE6       29.85S
$$

AZZ539-553-261100-
SOUTHWEST MARICOPA COUNTY AND PINAL COUNTY

CITY           SKY/WX    TMP DP  RH WIND       PRES   REMARKS
CASA GRANDE    NOT AVBL
GILA BEND      FAIR      73  34  24 SW13      29.82S
$$

AZZ503-504-507>509-261100-
SOUTHEAST ARIZONA

CITY           SKY/WX    TMP DP  RH WIND       PRES   REMARKS
TUCSON         CLOUDY    78  34  20 NE5       29.93S
DAVIS-MONTHAN  CLOUDY    75  34  22 N6        29.90F
NOGALES        CLOUDY    70  37  29 SE3       29.99F
SIERRA VISTA   CLOUDY    69  23  17 CALM      30.04
DOUGLAS        MOCLDY    64  27  24 S3        30.00F
SAFFORD        CLOUDY    75  26  16 W5        29.91S
$$

AZZ532-261100-
SOUTHWEST ARIZONA

CITY           SKY/WX    TMP DP  RH WIND       PRES   REMARKS
YUMA           NOT AVBL
$$

CAZ041-043-047-048-061-525>527-560>570-261100-
SOUTHERN CALIFORNIA

CITY           SKY/WX    TMP DP  RH WIND       PRES   REMARKS
DOWNTOWN L.A.  CLEAR     57  52  83 CALM      30.00F
L.A. AIRPORT   MOCLDY    58  52  80 W8        30.01F
SAN DIEGO      PTCLDY    61  53  75 NW3       30.05F
BURBANK        CLEAR     55  51  86 SE3       29.99F
ONTARIO        MOCLDY    54  48  80 W3        30.01F
RIVERSIDE      CLOUDY    57  49  74 CALM      30.01F
PALM SPRINGS   CLEAR     65  46  50 E8        29.86S
EL CENTRO NAS  CLEAR     65  43  44 W24G37    29.89F
IMPERIAL       CLEAR     64  44  48 W22G31    29.84F
BLYTHE         CLEAR     67  48  50 CALM      29.81S
NEEDLES        CLEAR     74  39  28 SW12      29.80S
$$

NVZ020-UTZ003-261100-
SOUTHERN NEVADA-UTAH

CITY           SKY/WX    TMP DP  RH WIND       PRES   REMARKS
LAS VEGAS      CLEAR     68  39  34 S14       29.80F
SALT LAKE CITY CLEAR     64  36  35 CALM      29.83R
$$

NMZ009-TXZ055-261100-
NEW MEXICO-WEST TEXAS

CITY           SKY/WX    TMP DP  RH WIND       PRES   REMARKS
ALBUQUERQUE    PTCLDY    61  11  14 E7        30.06R
EL PASO        MOCLDY    73  22  14 CALM      29.92F
$$


........................KEY........................
SKY/WX - SKY CONDITION/WEATHER
TMP    - TEMPERATURE IN FAHRENHEIT
DP     - DEW POINT IN FAHRENHEIT
RH     - RELATIVE HUMIDITY IN PERCENT
WIND   - DIRECTION AND SPEED IN MILES PER HOUR (MPH)
VRB    - VARIABLE WIND DIRECTION
PRES   - MEAN SEA LEVEL PRESSURE IN INCHES OF MERCURY
         F - FALLING PRESSURE   R - RISING PRESSURE
         S - STEADY PRESSURE
VSB    - VISIBILITY IN MILES
HX     - HEAT INDEX IN FAHRENHEIT
WCI    - WIND CHILL INDEX IN FAHRENHEIT
TC     - TEMPERATURE IN CELSIUS WHICH IS ALSO KNOWN AS
         TEMPERATURE IN CENTIGRADE
AFB    - AIR FORCE BASE
         LUKE AFB IS LUKE AIR FORCE BASE
         DAVIS-MONTHAN IS DAVIS-MONTHAN AIR FORCE BASE
NAS    - NAVAL AIR STATION
         EL CENTRO NAS IS EL CENTRO NAVAL AIR STATION
N/A    - NOT AVAILABLE





USA.gov is the U.S. government's official web portal to all federal, state and local government web resources and services.